2018-104C (43851 NORAD) Tracking and Keplerian Element Data

This shows tracking and keplerian element data for the satellite.

Feedback or suggestion? Click here.




ElementValue
Catalog43851
Name2018-104C
Epoch Orbit448
Epoch Day14.83075839
Epoch Year2019
RAAN158.8009
Inclination85.0358
Eccentricity0.0016541
Argument of Perigee163.9362
Mean Anonmoly196.241
Mean Motion15.21587901
Decay Rate1.441E-05
L11 43851U 18104C 19014.83075839 .00001441 00000-0 61918-4 0 9992
L22 43851 85.0358 158.8009 0016541 163.9362 196.2410 15.21587901 4488

Live tracking and technical data element details for 2018-104C (NORAD 43851). 2018-104C can be tracked NOW for your location showing map with azimuth and elevation plus other details from your city location.

Track the satellite on the map from your city or location and see movement details for azimuth, elevation, latitude, longitude, range, height, and movement on the map or in text.







IsCatalogInMostPopularTable: catalog: 43851, numindb: 65
Update: records affected: 1



GetName: 43851 2018-104C

Hit Count: updated at: Sun, 26 May 2019 09:07:19 GMT